Location: Berville
(49.1893°N, 2.0748°E)
Time: 19:48:30
(UTC+00:00)

FENGYUN 1C DEB - Pass Details

Date: 29 February 2024
Orbit: 768 x 960 km, 99.0° (Epoch: 13 April)

Event Time Altitude Azimuth Distance (km) Brightness Sun altitude
Exits shadow 18:34:41 11° 68° (ENE) 2,618 ? -10.7°
Maximum altitude 18:36:45 13° 48° (NE) 2,468 ? -11.0°
Drops below altitude 10° 18:39:20 10° 22° (NNE) 2,675 ? -11.5°
Sets 18:43:11 0° 357° (N) 3,593 ? -12.1°
